Zurück zum Katalog

IUS R/B(1)

AktivHEO
NORAD 25868·ROCKET BODY·🇺🇸 United States

Gestartet Jul 23, 1999 von Cape Canaveral Space Force Station

Loading…

Nächste Überflüge (nächste 24 Stunden)

TLE

AktuellSource: Space-Track

Epoche: Sep 14, 2026, 09:01 UTC

1 25868U 99040C   26257.37577444  .00020643  00000-0  68085-3 0  9999
2 25868  28.4634 259.9019 4320649 118.6762 291.3092  6.90882813619807

Verfolge IUS R/B(1) in Echtzeit mit AllMySat

Download on the App Store